sat.trackr.live / text

‹ back to catalog

QIANFAN-199

NORAD 69417 · 2026-125S

PAYLOAD ACTIVE UNKNOWN

§ Identity

Operator
Country
PRC
Launch date
2026-06-05
Launch site
WSC
Launch vehicle
Mass (kg)
RCS (m²)

External: N2YO · Heavens-Above · Gunter

§ Orbital elements

Epoch: 2026-09-20T03:36:37.971936Z

Period
106.59 min
Inclination
88.9877°
Eccentricity
0.0002261
Mean motion
13.51025740 rev/d
Perigee alt
1,066.8 km
Apogee alt
1,070.2 km
Semi-major
7,446.6 km
B*
2.9529e-5
RAAN
270.2684°
Arg perigee
100.7479°
Mean anomaly
259.3927°
Rev number
1,481

§ Raw data

QIANFAN-1991 69417U 26125S   26263.15043949  .00000031  00000+0  29529-4 0  99912 69417  88.9877 270.2684 0002261 100.7479 259.3927 13.51025740 14813

JSON: /api/v1/satellites/69417 · /tle

For live sub-satellite position, see the globe view (requires WebGL).

§ Visibility from observer

Set your observer location to see the next 7 days of passes ≥ 10°. The values pass through the URL so the page stays shareable.

No JS? Fill the form by hand. The geolocation button needs JavaScript.